Find Starlink 31263

NORAD ID: 58832 Int'l Des: 2024-017 Owner: SPXS Country: US Constellation: starlink operational
LEOCIRCULAR

Current View

Loading 3D Globe...

About Starlink 31263

Starlink 31263 (NORAD 58832) is a starlink constellation satellite (v2 mini) launched Jan 24, 2024 by SPXS of US. It operates in LEO, CIRCULAR orbit with a mass of 730.00 kg.

About Starlink 31263

Description loading...

Upcoming Passes

Passes for default location (London). Set your location on the main map for personalized predictions.

Altitude History

Loading altitude history...

Two-Line Element Set

1 58832U 24017G 26175.98331345 .00006875 00000-0 21442-3 0 9999
2 58832 53.1601 54.5726 0001341 94.6888 265.4268 15.34401942136753
Epoch: Jun 24, 2026 • Age: 15 hours

Current Status

Altitude 463.4 km
Velocity 7.64 km/s
Sub-Earth Point 0.42°N, 100.92°E
Launch Date Jan 24, 2024
Age 2.4 years
Type internet

Technical Details

Classification Payload
Mass 730.00 kg
Dry Mass 700.00 kg
Total Mass 730.00 kg
Length 0.30 m
Diameter 4.10 m
Span 29.00 m
Shape Box + pan
Manufacturer SPXS
Bus Type Starlink V2M
Phase Status In Orbit
Owner/State SPXS/US

Most Searched